Theta_e
328 332 337 325 307 306 302 305 312 312 312 317 318 317 315 321 317 312 334 336 336 328 338 344 346 347 348 346 346 347 345 343 341 339 338 336 336 336 336 336 336 335 335 334 333 335 336 335 336
323 324 326 316 304 299 301 309 308 311 316 318 319 317 315 318 328 328 330 337 332 327 338 341 344 347 348 348 346 345 343 340 339 338 336 336 336 336 335 335 334 334 334 334 333 334 335 335 333
323 321 314 310 304 299 302 308 310 315 317 318 316 317 317 321 328 330 335 337 327 328 336 341 343 346 347 346 346 345 343 341 338 337 336 335 334 333 335 334 334 334 334 333 333 333 333 333 333
316 317 314 304 302 305 306 306 314 313 316 320 318 313 323 330 330 334 337 336 325 328 336 340 344 347 347 346 345 344 343 342 340 337 336 335 335 337 338 335 334 333 333 332 331 330 330 330 330
315 311 305 303 303 307 308 308 315 312 313 316 316 313 319 329 335 335 335 333 322 328 339 342 344 345 345 345 344 344 343 342 341 339 337 335 335 335 338 336 334 332 331 330 329 329 328 328 328
307 310 301 300 304 308 309 309 308 312 313 314 313 315 321 331 333 331 334 328 323 334 339 341 337 340 342 343 343 343 342 342 341 339 338 337 334 335 334 333 333 333 332 330 329 330 329 329 329
304 304 302 303 304 307 308 310 307 309 311 313 315 310 323 327 332 331 330 325 323 335 339 340 340 338 336 338 339 340 341 340 339 339 337 336 335 335 335 334 334 332 331 330 330 331 331 331 332
308 306 301 304 304 305 312 309 310 310 309 316 315 307 316 327 332 329 327 323 322 331 338 338 338 338 337 335 333 335 337 336 337 336 334 332 332 333 332 330 332 334 334 333 333 333 332 332 333
315 302 299 302 305 307 309 307 309 312 310 310 314 316 327 331 332 325 320 319 323 325 334 335 337 335 334 335 333 331 332 332 332 332 329 325 329 330 329 328 329 333 333 333 332 333 334 333 331
305 301 303 309 310 309 309 308 308 306 307 308 314 327 330 331 330 322 318 316 320 321 325 332 331 333 334 336 335 333 334 332 330 331 330 330 329 329 328 325 326 328 328 330 331 333 332 328 325
305 299 306 309 312 313 309 308 309 306 304 307 310 322 325 327 328 327 320 317 318 321 324 332 333 334 336 335 335 333 333 330 330 330 331 330 329 327 328 326 324 323 319 323 326 326 326 324 325
301 306 305 308 312 311 309 310 307 307 307 311 312 324 323 325 326 327 325 319 318 320 322 328 331 333 332 334 334 332 331 330 328 329 330 328 327 326 326 326 326 326 324 323 324 324 325 325 326
300 303 304 306 309 309 310 307 306 306 312 314 319 323 322 323 326 328 329 325 320 319 322 325 329 331 332 331 330 330 329 328 328 328 330 329 327 326 327 326 326 325 325 324 324 324 324 325 326
304 303 303 304 307 308 307 307 308 308 313 313 318 319 321 323 326 327 330 327 324 322 322 324 325 327 331 331 329 327 327 328 328 327 328 329 328 327 327 326 327 326 326 325 324 324 324 325 327
304 300 302 301 304 305 308 303 303 309 312 313 314 317 321 324 326 327 329 328 327 326 326 325 324 325 325 326 327 326 327 327 326 327 328 328 329 327 327 326 326 326 327 326 325 326 326 327 327
299 299 294 300 302 303 302 296 306 310 309 310 313 315 319 320 325 328 330 330 330 330 330 329 328 325 324 325 326 327 327 326 326 327 328 328 328 328 327 326 327 328 328 326 326 327 326 325 326
297 290 292 296 303 301 299 295 305 308 309 308 311 315 317 318 321 326 329 330 331 331 331 330 329 326 326 329 330 330 330 329 329 329 329 329 329 329 327 327 327 329 328 328 328 327 325 324 325
287 291 293 293 298 299 296 295 298 302 304 306 309 313 316 316 318 323 326 329 330 331 331 330 331 329 330 331 332 331 333 333 333 333 331 331 331 330 328 328 328 329 328 329 328 326 326 326 325
293 292 291 295 297 297 295 295 296 299 300 301 306 311 314 316 320 322 324 326 326 327 328 328 329 331 331 330 330 331 330 331 332 334 334 333 333 332 330 329 329 329 330 329 328 326 324 323 324
292 290 290 293 296 297 295 294 297 298 298 299 303 306 313 314 316 320 322 324 325 325 326 327 328 330 331 331 331 330 330 332 331 332 333 333 333 332 331 330 329 330 329 328 328 326 323 323 322
290 289 289 290 293 294 291 291 294 298 299 301 300 301 303 307 311 312 314 315 316 314 315 320 324 325 327 329 330 329 329 327 326 327 329 330 332 332 332 331 330 330 330 327 327 325 323 320 322
288 293 293 292 290 283 289 282 290 294 295 297 299 300 300 301 304 306 308 307 307 307 308 309 311 313 313 315 324 325 324 322 325 326 328 329 331 330 329 330 330 329 331 327 326 326 325 323 317
290 295 292 292 289 286 285 282 286 289 289 290 291 295 296 296 297 296 300 304 305 306 306 307 308 310 311 311 311 315 319 321 318 318 319 321 323 327 330 330 330 328 327 326 326 324 325 321 317
296 293 292 291 288 280 286 284 284 287 288 288 290 292 296 296 296 297 300 301 303 304 305 306 307 307 309 308 308 308 308 308 308 309 311 313 316 319 322 324 326 325 325 324 324 325 324 320 318
293 288 281 279 279 280 285 283 286 290 290 290 291 292 294 296 297 298 297 299 300 301 303 305 305 304 306 306 307 307 307 307 307 308 307 309 311 314 316 317 320 318 318 318 321 320 318 314 315
289 288 281 277 278 279 283 279 286 292 292 293 293 293 294 296 298 299 300 301 301 302 302 302 303 302 304 305 305 306 307 307 307 308 308 310 311 310 312 312 312 313 313 313 310 308 308 312 312
288 285 291 283 281 278 281 285 290 290 291 292 293 294 294 297 298 300 300 301 301 301 301 302 301 301 301 301 303 303 304 305 304 306 307 307 306 306 308 308 307 307 307 307 307 305 307 308 307
290 292 282 282 273 273 278 280 283 286 288 292 292 292 294 295 296 299 300 300 300 299 299 299 299 299 299 300 300 300 301 302 303 303 303 303 303 304 304 303 303 303 303 303 304 304 304 302 301
287 286 287 286 283 278 276 277 285 287 290 290 292 293 295 295 296 298 300 300 299 298 298 298 298 298 298 298 298 298 298 298 300 300 300 300 300 301 301 301 300 300 299 300 299 299 299 298 298
290 287 288 280 279 281 280 279 290 290 291 292 292 294 295 295 297 298 300 299 299 298 298 298 298 298 298 298 298 298 297 297 297 297 298 299 298 299 299 299 298 297 297 296 296 295 296 296 296
Wind_Speed
15 8 8 1 3 5 9 16 10 8 3 4 3 6 2 13 2 5 7 9 21 17 15 12 14 15 14 15 15 14 13 13 12 12 12 12 11 11 11 11 10 10 10 9 10 10 11 11 12
7 6 3 3 5 9 9 12 12 6 6 5 10 2 2 6 8 8 7 12 19 16 14 13 13 14 13 16 14 13 12 13 12 12 12 12 11 11 10 10 9 9 9 8 8 8 8 9 10
6 9 3 4 7 12 2 10 8 12 8 8 5 3 3 5 9 12 11 17 18 16 13 13 12 14 13 15 14 13 12 12 12 12 12 10 9 7 12 10 8 7 8 7 7 6 6 7 7
4 3 4 5 13 16 14 3 16 9 4 8 8 8 6 6 9 8 13 16 15 16 13 14 14 16 15 15 14 13 12 11 10 10 7 9 5 7 12 10 8 7 6 6 6 5 5 5 6
3 5 7 9 15 18 2 6 10 8 7 6 4 7 6 4 10 15 13 14 13 13 15 13 14 14 16 16 14 13 12 11 9 9 8 8 6 6 10 7 9 7 5 4 4 4 3 3 4
4 4 7 12 16 17 6 8 5 9 9 9 4 7 5 8 10 11 12 12 10 14 14 12 12 12 13 14 14 13 10 10 9 7 9 9 6 5 5 6 5 3 4 3 1 1 0 2 3
9 7 11 15 15 5 4 8 6 7 8 7 1 3 5 6 9 10 11 11 9 13 14 12 10 10 10 11 11 11 9 9 8 6 7 8 8 5 4 3 3 3 3 3 2 3 4 5 5
4 5 14 15 13 6 6 7 6 6 6 5 2 2 7 8 8 9 9 10 9 11 14 12 10 9 7 6 9 8 8 9 8 7 6 6 6 6 5 5 5 5 5 4 4 4 6 7 7
2 5 13 17 16 8 12 7 1 5 8 2 4 7 12 16 7 9 7 7 9 7 12 11 11 10 8 8 7 7 6 5 7 6 7 5 4 7 8 8 6 7 5 4 6 7 7 7 9
6 6 11 14 14 8 10 8 9 3 6 5 10 13 15 12 8 10 11 9 8 8 7 12 9 10 9 7 9 6 6 5 5 6 6 5 7 5 5 5 8 7 6 7 9 10 10 7 5
2 5 9 18 4 10 7 7 9 7 8 8 13 13 13 13 14 10 9 9 8 8 6 9 6 2 5 7 6 4 4 4 4 7 7 7 5 4 3 3 3 4 7 4 6 6 4 6 4
5 8 15 7 5 4 6 4 7 8 2 5 12 20 13 14 14 13 11 12 10 9 8 9 9 8 5 2 6 4 4 4 4 5 7 4 1 2 2 3 5 5 4 5 4 2 4 4 4
4 6 17 3 2 2 7 5 5 6 6 7 16 18 16 14 13 11 8 11 9 10 10 9 11 9 6 5 4 5 5 4 5 4 5 4 4 4 3 4 3 3 3 3 3 4 4 4 5
10 5 14 13 6 4 4 4 5 6 9 8 12 13 14 14 17 12 11 9 11 9 9 12 12 10 10 8 6 5 4 5 5 4 5 6 4 4 4 4 3 3 3 4 4 4 3 3 4
1 8 7 12 6 4 6 4 6 9 9 9 7 10 12 14 15 16 11 7 10 8 9 10 10 9 9 9 7 4 4 4 4 4 5 6 6 5 5 3 3 4 4 5 3 3 3 4 3
3 2 7 13 9 3 3 6 11 7 7 8 10 9 10 10 16 13 11 9 9 8 8 8 9 8 8 7 5 4 3 3 4 4 4 6 6 7 5 4 4 4 3 3 2 4 4 4 4
5 5 6 4 4 4 7 3 7 6 7 7 8 9 8 9 10 12 13 10 10 9 9 8 8 8 7 6 5 5 6 5 4 4 5 7 7 7 5 4 4 5 3 4 3 4 3 4 4
5 10 4 3 2 4 6 5 5 4 2 6 7 8 9 8 9 9 10 10 9 10 9 9 8 8 7 5 4 4 4 5 4 5 5 7 5 7 6 5 5 4 3 4 3 5 4 4 4
8 9 6 1 5 5 7 6 6 8 5 4 5 4 8 7 9 7 7 7 7 7 8 9 9 9 7 4 5 6 5 3 3 4 6 6 5 6 6 5 5 5 6 5 5 4 4 4 3
8 9 2 2 2 3 6 5 5 3 5 6 5 4 6 4 5 7 6 6 5 5 5 5 7 7 5 4 3 4 3 4 4 4 6 6 6 6 6 6 5 6 4 5 5 5 2 2 2
5 5 7 4 2 1 4 5 6 6 3 6 2 4 5 5 8 7 5 4 2 2 1 1 1 4 3 5 3 2 2 2 2 2 1 2 4 6 6 6 5 5 4 4 4 4 5 4 3
3 5 11 13 7 2 2 2 4 2 5 1 3 4 4 3 4 5 4 5 5 4 7 6 6 6 5 6 2 3 4 4 4 4 4 4 6 5 4 4 5 6 4 3 4 4 3 3 4
3 6 7 11 7 5 1 3 3 4 6 8 8 7 7 7 6 8 7 5 6 6 5 3 4 5 4 2 1 1 2 1 1 2 4 4 5 4 2 4 4 3 2 2 3 3 4 3 3
8 5 5 4 5 3 4 0 4 3 1 2 4 5 5 5 6 6 6 6 6 5 4 2 5 4 3 1 2 2 1 2 2 2 1 2 2 1 3 5 3 4 2 1 1 2 2 1 3
4 5 2 1 2 2 4 4 5 6 5 3 5 5 5 3 3 3 2 1 3 3 3 1 4 3 2 4 4 3 3 2 0 1 1 2 2 0 3 3 2 2 3 3 2 3 3 2 1
6 4 3 2 2 3 3 4 1 6 7 6 6 6 4 4 3 4 5 4 4 4 4 3 4 4 4 4 4 4 4 3 3 3 2 2 3 3 4 4 5 4 3 3 4 3 2 2 3
2 3 1 5 3 1 4 4 6 8 7 6 7 7 7 5 4 5 5 3 4 3 3 5 5 4 4 4 4 4 4 5 4 4 4 4 4 3 5 5 5 5 5 4 4 3 2 3 4
3 7 3 3 3 2 4 3 4 8 8 10 11 7 6 3 3 2 3 3 3 4 3 3 3 4 3 4 4 4 4 5 5 5 6 6 4 4 5 5 5 5 5 5 5 4 4 5 4
3 1 4 4 1 0 2 1 3 9 7 7 7 7 6 4 1 1 1 3 3 4 3 3 2 3 3 4 4 5 4 4 4 5 5 4 5 5 5 5 5 5 5 5 5 5 6 6 5
2 4 5 3 3 2 2 5 5 8 6 4 6 6 5 3 3 0 4 4 3 3 3 4 3 3 3 3 4 5 4 4 5 5 5 4 5 5 5 5 6 5 5 6 6 5 5 6 5
Wind_Direction
302 224 241 195 256 223 245 251 246 201 98 70 8 51 37 28 36 131 149 119 123 130 143 148 144 144 139 129 127 124 118 111 108 105 99 97 97 94 93 91 91 93 88 90 84 72 64 61 62
303 260 276 265 241 248 257 220 242 165 101 117 69 11 321 95 80 137 101 135 123 136 144 145 142 143 145 133 129 124 121 117 114 112 108 108 105 104 100 97 93 96 96 92 85 78 67 61 58
263 254 278 207 240 248 189 299 183 91 116 127 126 5 15 81 110 144 136 130 129 133 156 139 147 149 142 136 131 129 124 124 124 121 122 124 115 109 125 115 105 98 96 93 87 81 70 61 55
270 204 257 253 261 238 257 209 106 112 132 145 136 119 73 0 136 134 143 136 132 138 135 134 146 149 145 137 141 135 132 135 135 125 126 122 103 133 131 122 114 105 97 94 90 76 61 48 37
196 263 240 233 245 265 47 48 130 141 151 188 180 144 92 64 102 126 155 132 133 138 127 138 137 146 147 144 142 136 140 140 140 133 136 128 117 117 107 114 123 125 111 104 95 79 62 40 22
252 221 245 230 247 241 142 139 261 159 172 166 167 124 90 119 121 146 143 134 141 124 134 138 137 139 144 146 145 140 146 146 148 146 144 139 136 124 115 109 111 113 128 137 137 114 358 326 328
234 253 244 246 253 267 124 128 217 196 157 141 28 194 110 166 141 153 143 138 143 126 127 134 138 141 139 140 135 140 149 156 154 142 149 142 159 162 148 143 163 167 183 207 244 278 285 301 307
239 246 261 253 261 231 291 147 192 227 145 81 147 113 160 150 155 148 148 136 137 133 138 146 146 149 148 144 143 151 159 157 157 161 152 153 162 174 186 195 213 215 225 248 276 286 292 290 291
294 235 235 244 252 259 149 158 333 19 113 102 89 58 104 129 178 153 143 139 133 143 146 150 154 160 163 156 157 157 163 167 165 169 176 167 207 192 199 203 218 209 236 263 271 271 272 279 280
199 214 234 245 248 252 158 178 156 151 156 149 96 96 112 133 176 163 159 157 141 156 157 153 158 167 167 164 150 169 172 183 182 182 176 206 225 184 161 170 179 203 233 250 257 256 255 261 254
236 225 256 261 356 12 162 190 155 196 194 180 161 143 140 147 171 180 162 163 153 166 155 135 134 145 156 160 160 170 175 194 189 190 182 205 230 166 150 161 200 207 222 232 241 238 237 247 247
164 270 276 304 31 4 335 192 160 190 95 203 160 148 149 161 171 183 181 167 159 164 166 137 158 189 211 188 158 170 184 198 191 190 193 199 213 227 213 198 209 195 170 215 240 236 252 262 278
171 183 309 270 345 297 29 321 186 208 99 66 107 136 150 171 171 190 206 164 163 166 167 164 170 173 192 219 178 183 198 181 187 196 195 186 199 205 217 222 210 212 214 213 231 241 244 247 252
192 205 258 283 234 166 191 207 54 247 132 113 132 145 156 170 179 183 218 174 167 167 169 168 177 175 174 193 226 188 191 180 186 194 195 200 197 203 218 229 217 221 217 233 227 236 255 269 289
82 179 286 292 243 205 214 163 214 272 139 143 169 156 161 169 175 188 203 180 165 175 170 172 175 175 177 183 199 202 186 177 180 190 207 205 199 220 234 217 225 227 223 220 237 267 258 260 264
217 297 182 282 217 198 252 208 209 171 139 177 176 167 153 174 174 181 211 179 164 171 179 176 179 179 180 177 185 183 190 189 205 205 201 205 205 203 216 222 226 231 230 200 210 246 277 267 256
179 202 207 142 218 172 211 204 94 127 165 211 177 156 159 168 173 176 194 188 179 179 176 172 165 176 180 187 176 190 195 202 203 207 204 208 203 202 198 211 223 226 212 213 228 245 242 268 267
340 251 180 236 355 292 211 245 121 132 188 231 202 158 155 169 178 177 187 175 173 172 171 169 171 174 184 179 191 194 191 196 204 220 211 207 202 200 199 202 223 223 222 236 220 223 231 229 258
334 322 308 49 317 302 241 247 207 161 153 290 262 188 152 176 171 164 165 154 164 164 172 169 171 181 176 174 179 217 224 200 219 234 228 227 209 207 199 197 209 216 222 211 230 230 230 268 280
359 353 2 184 301 286 339 246 278 204 177 179 252 213 172 151 150 135 148 158 167 173 177 192 178 174 179 164 182 164 180 225 207 210 218 215 217 214 208 196 210 224 210 213 236 254 257 259 281
67 46 311 340 264 181 291 265 211 238 234 156 227 337 10 151 165 153 155 178 141 200 187 145 173 164 153 165 146 134 120 60 18 331 283 218 234 229 217 209 203 222 235 213 227 224 210 239 261
104 10 355 359 341 72 285 270 68 188 138 177 218 198 265 323 68 80 145 156 153 97 66 50 46 49 46 29 105 168 174 204 210 219 221 210 215 226 252 232 215 226 232 209 220 255 247 204 234
101 299 4 345 343 0 70 55 289 10 75 39 37 47 27 21 23 1 13 61 82 103 108 118 110 76 51 36 342 309 246 252 19 30 23 1 339 315 224 237 243 273 276 245 211 236 245 226 206
188 176 98 22 352 358 285 160 338 66 18 50 66 76 64 37 6 14 31 39 84 62 69 93 134 122 127 185 93 39 31 11 29 1 323 279 259 352 54 4 2 9 31 60 222 271 277 234 149
256 139 62 79 95 228 8 21 279 72 49 30 345 352 30 76 66 54 72 94 92 109 120 160 123 121 131 101 92 83 66 58 78 284 312 21 350 341 69 27 83 56 61 62 76 84 68 354 82
219 167 139 74 46 345 304 219 242 88 65 31 11 338 343 95 95 93 69 81 117 133 145 153 117 111 102 105 110 99 72 79 75 56 27 39 68 59 56 63 68 62 66 67 73 68 83 83 55
166 104 103 117 126 23 238 235 311 95 67 48 34 9 14 49 66 82 77 82 122 137 121 131 125 125 113 107 97 82 70 74 76 60 52 67 55 44 56 63 71 57 52 49 93 90 76 76 77
14 163 91 4 127 216 255 199 216 66 36 34 22 21 12 53 43 106 139 134 101 100 87 71 122 139 127 111 95 90 81 69 71 71 68 75 75 71 69 65 66 62 55 53 75 75 67 81 57
156 199 50 113 99 231 5 91 14 85 70 42 18 11 7 10 30 222 187 144 146 131 141 162 155 139 139 130 123 110 94 88 81 85 76 77 70 70 78 81 79 77 69 63 74 75 78 88 83
0 349 152 155 190 261 82 291 100 119 129 90 36 10 352 343 314 282 170 154 157 187 188 192 186 175 179 153 130 117 106 95 95 87 85 79 83 72 83 86 82 74 69 64 79 74 77 94 94